• Em Portugal
  • Lista de países
  • Para 7 dias
  • Temperatura da água
  • Mapas de satélite
  • Mapa do tempo
  • Widgets de tempo
  • user-avatar
    Iniciar Sessão

    Previsão horária em Topkiy Rzhavec

    Hoje, 21 Maio, Segunda-feira

    Tempo Temperatura Precipitação Vento Pressão Humidade
    00:00 +9°C° 0 mm 5 m/s 745 mmHg 92%
    01:00 +9°C° 0 mm 5 m/s 745 mmHg 92%
    02:00 +8°C° 0 mm 4 m/s 745 mmHg 91%
    03:00 +10°C° 0 mm 4 m/s 745 mmHg 90%
    04:00 +9°C° 0 mm 5 m/s 746 mmHg 88%
    05:00 +9°C° 0 mm 5 m/s 746 mmHg 87%
    06:00 +10°C° 0 mm 6 m/s 746 mmHg 83%
    07:00 +11°C° 0 mm 6 m/s 746 mmHg 80%
    08:00 +13°C° 0 mm 6 m/s 747 mmHg 76%
    09:00 +14°C° 0 mm 7 m/s 747 mmHg 73%
    10:00 +14°C° 0 mm 7 m/s 747 mmHg 70%
    11:00 +15°C° 0 mm 7 m/s 747 mmHg 68%
    12:00 +16°C° 0 mm 7 m/s 747 mmHg 67%
    13:00 +16°C° 0 mm 7 m/s 747 mmHg 67%
    14:00 +16°C° 0 mm 7 m/s 747 mmHg 67%
    15:00 +16°C° 0 mm 6 m/s 747 mmHg 69%
    16:00 +16°C° 0 mm 6 m/s 747 mmHg 70%
    17:00 +16°C° 0 mm 5 m/s 747 mmHg 72%
    18:00 +15°C° 0 mm 5 m/s 747 mmHg 73%
    19:00 +14°C° 0 mm 5 m/s 747 mmHg 75%
    20:00 +13°C° 0 mm 4 m/s 747 mmHg 77%
    21:00 +13°C° 0,1 mm 4 m/s 747 mmHg 78%
    22:00 +12°C° 0,1 mm 4 m/s 747 mmHg 79%
    23:00 +12°C° 0,1 mm 5 m/s 747 mmHg 81%

    Amanhã, 22 Maio, Terça-feira

    Tempo Temperatura Precipitação Vento Pressão Humidade
    00:00 +12°C° 0,2 mm 5 m/s 747 mmHg 84%
    01:00 +12°C° 0,2 mm 5 m/s 747 mmHg 87%
    02:00 +10°C° 0,2 mm 5 m/s 747 mmHg 91%
    03:00 +12°C° 0,1 mm 5 m/s 747 mmHg 92%
    04:00 +12°C° 0,1 mm 4 m/s 747 mmHg 93%
    05:00 +12°C° 0,1 mm 4 m/s 747 mmHg 94%
    06:00 +12°C° 0,3 mm 4 m/s 747 mmHg 94%
    07:00 +13°C° 0,3 mm 4 m/s 747 mmHg 94%
    08:00 +13°C° 0,3 mm 4 m/s 748 mmHg 94%
    09:00 +14°C° 0,1 mm 4 m/s 748 mmHg 92%
    10:00 +15°C° 0,1 mm 5 m/s 748 mmHg 90%
    11:00 +16°C° 0,1 mm 5 m/s 748 mmHg 89%
    12:00 +16°C° 0 mm 5 m/s 748 mmHg 88%
    13:00 +16°C° 0 mm 5 m/s 748 mmHg 87%
    14:00 +18°C° 0 mm 4 m/s 747 mmHg 87%
    15:00 +18°C° 0 mm 4 m/s 747 mmHg 86%
    16:00 +18°C° 0 mm 4 m/s 747 mmHg 86%
    17:00 +18°C° 0 mm 3 m/s 747 mmHg 86%
    18:00 +17°C° 0 mm 3 m/s 747 mmHg 89%
    19:00 +16°C° 0 mm 3 m/s 747 mmHg 92%
    20:00 +15°C° 0 mm 2 m/s 747 mmHg 96%
    21:00 +14°C° 0 mm 2 m/s 747 mmHg 96%
    22:00 +14°C° 0 mm 2 m/s 747 mmHg 96%
    23:00 +13°C° 0 mm 2 m/s 747 mmHg 96%

    Depois de amanhã, 23 Maio, Quarta-feira

    Tempo Temperatura Precipitação Vento Pressão Humidade
    00:00 +13°C° 0 mm 2 m/s 747 mmHg 96%
    01:00 +13°C° 0 mm 1 m/s 747 mmHg 97%
    02:00 +13°C° 0 mm 1 m/s 747 mmHg 97%
    03:00 +13°C° 0 mm 1 m/s 747 mmHg 97%
    04:00 +14°C° 0 mm 1 m/s 747 mmHg 97%
    05:00 +13°C° 0 mm 0 m/s 748 mmHg 97%
    06:00 +14°C° 0 mm 0 m/s 748 mmHg 93%
    07:00 +16°C° 0 mm 0 m/s 748 mmHg 89%
    08:00 +17°C° 0 mm 0 m/s 748 mmHg 85%
    09:00 +18°C° 0 mm 0 m/s 748 mmHg 81%
    10:00 +21°C° 0 mm 1 m/s 748 mmHg 76%
    11:00 +22°C° 0 mm 1 m/s 748 mmHg 71%
    12:00 +23°C° 0 mm 1 m/s 747 mmHg 66%
    13:00 +24°C° 0 mm 1 m/s 747 mmHg 62%
    14:00 +25°C° 0 mm 1 m/s 747 mmHg 58%
    15:00 +25°C° 0 mm 1 m/s 747 mmHg 59%
    16:00 +24°C° 0 mm 1 m/s 746 mmHg 60%
    17:00 +24°C° 0 mm 1 m/s 746 mmHg 61%
    18:00 +22°C° 0 mm 1 m/s 746 mmHg 67%
    19:00 +20°C° 0 mm 1 m/s 746 mmHg 74%
    20:00 +18°C° 0 mm 1 m/s 746 mmHg 80%
    21:00 +18°C° 0 mm 1 m/s 746 mmHg 82%
    22:00 +16°C° 0 mm 1 m/s 746 mmHg 83%
    23:00 +16°C° 0 mm 1 m/s 746 mmHg 85%

    24 Maio, Quinta-feira

    Tempo Temperatura Precipitação Vento Pressão Humidade
    00:00 +15°C° 0 mm 1 m/s 746 mmHg 86%
    01:00 +15°C° 0 mm 1 m/s 746 mmHg 88%
    02:00 +14°C° 0 mm 1 m/s 746 mmHg 89%
    03:00 +15°C° 0 mm 1 m/s 745 mmHg 89%
    04:00 +15°C° 0 mm 1 m/s 745 mmHg 89%
    05:00 +15°C° 0 mm 1 m/s 745 mmHg 90%
    06:00 +17°C° 0 mm 2 m/s 745 mmHg 84%
    07:00 +19°C° 0 mm 2 m/s 745 mmHg 79%
    08:00 +20°C° 0 mm 2 m/s 745 mmHg 74%
    09:00 +21°C° 0 mm 3 m/s 745 mmHg 69%
    10:00 +22°C° 0 mm 3 m/s 745 mmHg 65%
    11:00 +24°C° 0 mm 3 m/s 745 mmHg 60%
    12:00 +24°C° 0 mm 3 m/s 745 mmHg 59%
    13:00 +25°C° 0 mm 4 m/s 745 mmHg 57%
    14:00 +25°C° 0 mm 4 m/s 744 mmHg 56%
    15:00 +23°C° 0 mm 4 m/s 744 mmHg 60%
    16:00 +24°C° 0 mm 3 m/s 744 mmHg 63%
    17:00 +24°C° 0 mm 3 m/s 744 mmHg 67%
    18:00 +21°C° 0 mm 3 m/s 744 mmHg 72%
    19:00 +19°C° 0 mm 3 m/s 744 mmHg 77%
    20:00 +17°C° 0 mm 3 m/s 744 mmHg 82%
    21:00 +16°C° 0 mm 3 m/s 745 mmHg 84%
    22:00 +16°C° 0 mm 3 m/s 745 mmHg 85%
    23:00 +14°C° 0 mm 3 m/s 745 mmHg 87%

    25 Maio, Sexta-feira

    Tempo Temperatura Precipitação Vento Pressão Humidade
    00:00 +13°C° 0 mm 4 m/s 745 mmHg 89%
    01:00 +13°C° 0 mm 4 m/s 745 mmHg 90%
    02:00 +13°C° 0 mm 4 m/s 745 mmHg 92%
    03:00 +12°C° 0 mm 5 m/s 746 mmHg 91%
    04:00 +12°C° 0 mm 5 m/s 746 mmHg 90%
    05:00 +11°C° 0 mm 6 m/s 746 mmHg 89%
    06:00 +13°C° 0 mm 6 m/s 747 mmHg 83%
    07:00 +13°C° 0 mm 6 m/s 747 mmHg 77%
    08:00 +14°C° 0 mm 7 m/s 747 mmHg 70%
    09:00 +15°C° 0 mm 7 m/s 747 mmHg 65%
    10:00 +15°C° 0 mm 7 m/s 747 mmHg 60%
    11:00 +15°C° 0 mm 7 m/s 748 mmHg 55%
    12:00 +15°C° 0 mm 7 m/s 748 mmHg 54%
    13:00 +15°C° 0 mm 7 m/s 748 mmHg 53%
    14:00 +15°C° 0 mm 7 m/s 748 mmHg 52%
    15:00 +15°C° 0 mm 7 m/s 748 mmHg 54%
    16:00 +14°C° 0 mm 7 m/s 748 mmHg 56%
    17:00 +13°C° 0 mm 6 m/s 748 mmHg 58%
    18:00 +11°C° 0 mm 6 m/s 748 mmHg 60%
    19:00 +9°C° 0 mm 5 m/s 749 mmHg 63%
    20:00 +8°C° 0 mm 4 m/s 749 mmHg 65%
    21:00 +7°C° 0 mm 4 m/s 750 mmHg 64%
    22:00 +6°C° 0 mm 4 m/s 750 mmHg 64%
    23:00 +6°C° 0 mm 4 m/s 750 mmHg 63%

    26 Maio, Sábado

    Tempo Temperatura Precipitação Vento Pressão Humidade
    00:00 +5°C° 0 mm 4 m/s 750 mmHg 64%
    01:00 +4°C° 0 mm 4 m/s 751 mmHg 65%
    02:00 +4°C° 0 mm 4 m/s 751 mmHg 66%
    03:00 +4°C° 0 mm 4 m/s 751 mmHg 67%
    04:00 +4°C° 0 mm 4 m/s 752 mmHg 68%
    05:00 +4°C° 0 mm 4 m/s 752 mmHg 69%
    06:00 +6°C° 0 mm 5 m/s 752 mmHg 63%
    07:00 +7°C° 0 mm 5 m/s 752 mmHg 58%
    08:00 +9°C° 0 mm 6 m/s 752 mmHg 52%
    09:00 +10°C° 0 mm 6 m/s 752 mmHg 51%
    10:00 +11°C° 0 mm 6 m/s 752 mmHg 50%
    11:00 +13°C° 0 mm 6 m/s 752 mmHg 49%
    12:00 +13°C° 0 mm 6 m/s 752 mmHg 49%
    13:00 +14°C° 0 mm 6 m/s 752 mmHg 48%
    14:00 +15°C° 0 mm 6 m/s 752 mmHg 48%
    15:00 +15°C° 0 mm 5 m/s 752 mmHg 51%
    16:00 +15°C° 0 mm 4 m/s 752 mmHg 54%
    17:00 +15°C° 0 mm 4 m/s 752 mmHg 58%
    18:00 +13°C° 0 mm 3 m/s 751 mmHg 63%
    19:00 +12°C° 0 mm 2 m/s 751 mmHg 69%
    20:00 +10°C° 0 mm 2 m/s 751 mmHg 74%
    21:00 +10°C° 0 mm 2 m/s 751 mmHg 75%
    22:00 +9°C° 0 mm 2 m/s 751 mmHg 76%
    23:00 +9°C° 0 mm 2 m/s 751 mmHg 78%
    Mostrar mais